Location: Assche-ter-Heiden
(50.9174°N, 4.1574°E)
Time: 13:05:18
(UTC+00:00)

CZ-4B DEB - Pass Details

Date: 20 January 2020
Orbit: 840 x 862 km, 99.1° (Epoch: 27 February)

Event Time Altitude Azimuth Distance (km) Brightness Sun altitude
Rises 05:18:44 0° 15° (NNE) 3,454 7.5 -21.1°
Reaches altitude 10° 05:21:08 10° 16° (NNE) 2,511 6.8 -20.7°
Maximum altitude 05:26:44 86° 107° (ESE) 868 4.2 -19.8°
Drops below altitude 10° 05:32:16 10° 196° (SSW) 2,482 6.6 -19.0°
Sets 05:34:37 0° 197° (SSW) 3,411 7.3 -18.6°
